GW5913 Weather Reports


time (UTC)temp
C
wind
direction
speed
KPH
gust
KPH
rain 1hr
cm
rain 24hr
cm
rain mn
cm
humidity
%
barometer
mb
20260505170152 21 195 17.7 30.6 0.00 0.23 0.23 86 1009.9
20260505165652 21 167 11.3 25.7 0.00 0.23 0.23 87 1009.8
20260505165148 20 160 11.3 24.1 0.00 0.23 0.23 87 1009.8
20260505164643 21 206 8.0 22.5 0.00 0.23 0.23 85 1010.1
20260505164141 21 149 24.1 29.0 0.00 0.23 0.23 85 1009.9
20260505163639 21 170 11.3 20.9 0.00 0.23 0.23 86 1010.0
20260505163137 20 164 12.9 24.1 0.00 0.23 0.23 86 1009.9
20260505162634 21 191 17.7 29.0 0.00 0.23 0.23 86 1009.7
20260505162132 21 209 16.1 32.2 0.00 0.23 0.23 84 1009.8
20260505161629 21 168 11.3 22.5 0.00 0.23 0.23 85 1009.7
20260505161126 21 171 11.3 20.9 0.00 0.23 0.23 83 1009.8
20260505160624 21 186 11.3 24.1 0.00 0.23 0.23 85 1009.4
20260505160121 21 180 14.5 22.5 0.00 0.23 0.23 85 1009.2
20260505153100 21 191 19.3 19.3 0.00 0.23 0.23 86 1009.1
20260505152557 21 180 9.7 22.5 0.00 0.23 0.23 86 1009.1
20260505152053 20 174 24.1 27.4 0.00 0.23 0.23 86 1009.2
20260505151548 20 182 16.1 24.1 0.00 0.23 0.23 87 1009.1
20260505151046 20 178 19.3 27.4 0.00 0.23 0.23 87 1009.0
20260505150542 20 161 4.8 16.1 0.00 0.23 0.23 88 1009.2
20260505140507 18 190 6.4 9.7 0.00 0.23 0.23 90 1009.9
20260505124920 16 175 3.2 8.0 0.00 0.23 0.23 95 1010.2
20260505124417 16 88 6.4 17.7 0.00 0.23 0.23 95 1010.2
20260505123913 16 93 11.3 19.3 0.00 0.23 0.23 95 1010.1
20260505123410 16 118 4.8 14.5 0.00 0.23 0.23 95 1010.3
20260505122906 16 64 8.0 20.9 0.00 0.23 0.23 95 1010.3
20260505122404 16 113 11.3 19.3 0.00 0.23 0.23 95 1010.0
20260505121900 16 104 14.5 17.7 0.00 0.23 0.23 96 1010.2
20260505121357 16 126 14.5 22.5 0.00 0.23 0.23 96 1010.1
20260505120853 16 81 16.1 22.5 0.00 0.23 0.23 96 1010.2
20260505120349 16 89 22.5 24.1 0.00 0.23 0.23 95 1010.1
20260505115848 16 102 14.5 19.3 0.00 0.23 0.23 95 1009.9
20260505115345 16 100 9.7 29.0 0.00 0.23 0.23 95 1010.0
20260505114843 16 112 14.5 20.9 0.00 0.23 0.23 96 1010.2
20260505114339 16 97 9.7 19.3 0.00 0.23 0.23 96 1009.8
20260505113836 16 96 11.3 22.5 0.00 0.23 0.23 96 1010.1
20260505113333 16 64 9.7 19.3 0.00 0.23 0.23 97 1010.1
20260505112828 16 89 9.7 19.3 0.00 0.23 0.23 96 1010.2
20260505112326 16 51 3.2 6.4 0.00 0.23 0.23 96 1010.1
20260505111821 16 76 8.0 14.5 0.00 0.23 0.23 97 1010.4
20260505111317 16 36 4.8 8.0 0.00 0.23 0.23 97 1010.0
20260505110813 16 81 4.8 12.9 0.00 0.23 0.23 97 1010.0
20260505110311 16 61 11.3 19.3 0.00 0.23 0.23 98 1010.0
20260505101745 16 84 6.4 14.5 0.00 0.23 0.23 98 1010.0
20260505101241 16 54 3.2 14.5 0.00 0.23 0.23 98 1010.1
20260505100737 16 65 6.4 16.1 0.05 0.23 0.23 98 1010.1
20260505100234 16 69 4.8 9.7 0.05 0.23 0.23 98 1010.1
20260505095729 16 28 3.2 12.9 0.00 0.23 0.23 98 1010.4
20260505095228 16 57 8.0 14.5 0.00 0.23 0.23 98 1010.5
20260505094723 16 69 9.7 17.7 0.00 0.23 0.23 98 1010.3
20260505094220 16 111 4.8 17.7 0.00 0.23 0.23 98 1010.5
20260505093716 16 72 8.0 9.7 0.00 0.23 0.23 98 1010.4
20260505093214 16 95 1.6 6.4 0.00 0.23 0.23 99 1010.3
20260505092710 16 34 4.8 11.3 0.00 0.23 0.23 99 1010.3
20260505092209 16 11 0.0 6.4 0.00 0.23 0.23 99 1010.4
20260505091706 16 48 4.8 6.4 0.00 0.23 0.23 99 1010.4
20260505091204 16 17 1.6 6.4 0.00 0.23 0.23 99 1010.4
20260505090701 16 81 0.0 4.8 0.05 0.23 0.23 99 1010.6
20260505090159 16 4 3.2 6.4 0.05 0.23 0.23 98 1010.3
20260505085656 16 322 1.6 4.8 0.05 0.20 0.20 98 1010.1
20260505085154 16 44 3.2 6.4 0.05 0.20 0.20 98 1010.1
20260505084651 16 57 3.2 9.7 0.00 0.20 0.20 98 1010.3
20260505084150 16 43 3.2 8.0 0.00 0.20 0.20 97 1010.4
20260505083647 16 8 3.2 8.0 0.00 0.20 0.20 97 1010.7
20260505083143 16 344 4.8 11.3 0.23 0.20 0.20 97 1010.7
20260505082639 16 350 6.4 9.7 0.53 0.20 0.20 95 1010.5
20260505082137 16 60 6.4 11.3 0.43 0.15 0.15 94 1010.2
20260505081632 17 349 6.4 27.4 0.00 0.10 0.10 91 1010.9
20260505081130 17 327 9.7 19.3 0.00 0.10 0.10 89 1011.1
20260505080627 17 301 0.0 12.9 0.00 0.10 0.10 88 1009.8
20260505080123 17 28 6.4 11.3 0.00 0.10 0.10 88 1009.6
20260505075619 17 343 6.4 22.5 0.00 0.10 0.10 89 1009.5
20260505075116 18 355 8.0 29.0 0.00 0.10 0.10 85 1009.8
20260505074613 18 335 6.4 8.0 0.00 0.10 0.10 84 1008.4
20260505074110 18 173 6.4 16.1 0.00 0.10 0.10 83 1008.0
20260505073608 17 191 3.2 12.9 0.00 0.10 0.10 85 1007.7
20260505073106 17 135 11.3 22.5 0.00 0.10 0.10 85 1007.2
20260505072601 17 113 17.7 25.7 0.00 0.10 0.10 84 1007.9
20260505072058 18 97 20.9 20.9 0.00 0.10 0.10 81 1008.2
20260505071553 18 125 16.1 20.9 0.00 0.10 0.10 82 1008.2
20260505071051 18 166 12.9 29.0 0.00 0.10 0.10 81 1008.7
20260505070548 17 97 19.3 25.7 0.00 0.10 0.10 84 1009.0
20260505070044 18 173 8.0 9.7 0.05 0.10 0.10 83 1010.0
20260505065540 18 316 3.2 6.4 0.05 0.10 0.10 82 1010.7
20260505065037 18 345 4.8 8.0 0.00 0.08 0.08 82 1010.5
20260505064534 18 291 1.6 3.2 0.00 0.08 0.08 79 1010.2
20260505064033 18 226 1.6 9.7 0.00 0.08 0.08 78 1009.7
20260505063529 18 181 16.1 22.5 0.00 0.08 0.08 77 1009.6
20260505063025 17 168 8.0 17.7 0.36 0.08 0.08 82 1009.6
20260505062522 18 133 6.4 12.9 0.36 0.08 0.08 81 1009.6
20260505062020 18 142 6.4 14.5 0.13 0.03 0.03 76 1010.1
20260505061517 19 206 8.0 17.7 0.13 0.03 0.03 75 1010.4
20260505061015 20 198 24.1 27.4 0.00 0.00 0.00 70 1010.0
20260505060512 20 185 9.7 19.3 0.00 0.00 0.00 68 1010.6
20260505060008 20 181 8.0 17.7 0.00 0.00 0.00 68 1010.0
20260505055504 20 161 6.4 12.9 0.00 0.00 0.00 68 1010.4
20260505055001 20 14 3.2 8.0 0.00 0.00 0.00 68 1010.5
20260505054458 20 179 11.3 20.9 0.00 0.00 0.00 69 1010.5
20260505053956 20 181 9.7 17.7 0.00 0.00 0.00 71 1010.5
20260505053453 20 167 14.5 20.9 0.00 0.00 0.00 70 1010.5
20260505052949 20 188 14.5 16.1 0.00 0.00 0.00 69 1010.5
20260505052447 20 174 11.3 14.5 0.00 0.00 0.00 69 1010.4
20260505051944 20 157 14.5 17.7 0.00 0.00 0.00 70 1010.4
20260505051440 20 195 9.7 22.5 0.00 0.00 0.00 70 1010.4
20260505050939 19 165 14.5 20.9 0.00 0.00 0.00 70 1010.5
20260505050437 19 156 14.5 19.3 0.00 0.00 0.00 71 1010.5
20260505041405 18 224 6.4 11.3 0.00 0.00 0.00 73 1011.5
20260505040901 18 258 3.2 6.4 0.00 0.00 0.00 74 1011.3
20260505040359 18 195 3.2 6.4 0.00 0.00 0.00 74 1011.3
20260505035855 18 215 4.8 6.4 0.00 0.00 0.00 73 1011.2
20260505035351 18 203 4.8 8.0 0.00 0.00 0.00 73 1011.5
20260505034849 18 215 4.8 11.3 0.00 0.00 0.00 73 1011.5
20260505034345 19 206 6.4 11.3 0.00 0.00 0.00 73 1011.4
20260505033842 19 184 8.0 11.3 0.00 0.00 0.00 72 1011.5
20260505033339 18 180 6.4 8.0 0.00 0.00 0.00 73 1011.5
20260505032837 19 180 4.8 8.0 0.00 0.00 0.00 72 1011.6
20260505032334 19 180 4.8 6.4 0.00 0.00 0.00 72 1011.7
20260505031831 19 157 3.2 6.4 0.00 0.00 0.00 73 1011.7
20260505031327 19 182 4.8 8.0 0.00 0.00 0.00 73 1011.7
20260505030825 19 145 4.8 8.0 0.00 0.00 0.00 72 1011.7
20260505030321 19 174 8.0 8.0 0.00 0.00 0.00 72 1011.9
20260505025816 19 183 4.8 6.4 0.00 0.00 0.00 72 1011.9
20260505025314 20 156 4.8 6.4 0.00 0.00 0.00 71 1011.9
20260505024812 20 174 4.8 8.0 0.00 0.00 0.00 72 1011.9
20260505024310 20 190 6.4 8.0 0.00 0.00 0.00 71 1011.7
20260505023807 20 193 4.8 8.0 0.00 0.00 0.00 71 1011.7
20260505023303 20 176 4.8 14.5 0.00 0.00 0.00 71 1011.6
20260505022801 20 184 6.4 11.3 0.00 0.00 0.00 71 1011.7
20260505022258 20 206 6.4 16.1 0.00 0.00 0.00 70 1011.5
20260505021755 20 186 6.4 11.3 0.00 0.00 0.00 71 1011.3
20260505021251 20 186 8.0 11.3 0.00 0.00 0.00 70 1011.2
20260505020747 20 197 4.8 12.9 0.00 0.00 0.00 70 1011.2
20260505020242 20 184 8.0 11.3 0.00 0.00 0.00 70 1011.1
20260505015740 20 190 6.4 11.3 0.00 0.00 0.00 70 1011.3
20260505015237 20 197 6.4 14.5 0.00 0.00 0.00 69 1011.3
20260505014734 20 189 6.4 8.0 0.00 0.00 0.00 69 1011.2
20260505014231 20 225 3.2 8.0 0.00 0.00 0.00 68 1011.4
20260505013728 20 199 4.8 9.7 0.00 0.00 0.00 68 1011.0
20260505013225 20 191 9.7 12.9 0.00 0.00 0.00 67 1011.0
20260505012723 20 189 4.8 11.3 0.00 0.00 0.00 68 1010.9
20260505012220 20 211 8.0 14.5 0.00 0.00 0.00 67 1010.6
20260505011716 21 190 9.7 16.1 0.00 0.00 0.00 67 1010.7
20260505011213 21 208 3.2 14.5 0.00 0.00 0.00 67 1010.5
20260505010708 21 189 14.5 14.5 0.00 0.00 0.00 66 1010.6
20260505010205 21 193 8.0 17.7 0.00 0.00 0.00 66 1010.6
20260505005701 21 174 8.0 12.9 0.00 0.00 0.00 66 1010.4
20260505005159 21 185 3.2 9.7 0.00 0.00 0.00 66 1010.7
20260505004656 21 172 4.8 8.0 0.00 0.00 0.00 66 1010.4
20260505004152 21 173 6.4 11.3 0.00 0.00 0.00 64 1010.4
20260505003649 21 180 11.3 12.9 0.00 0.00 0.00 63 1010.4
20260505003147 21 175 4.8 11.3 0.00 0.00 0.00 63 1010.6
20260505002643 22 174 8.0 12.9 0.00 0.00 0.00 62 1010.4
20260505002141 22 185 11.3 19.3 0.00 0.00 0.00 62 1010.3
20260505001638 22 180 9.7 19.3 0.00 0.00 0.00 61 1010.3
20260505001136 22 204 25.7 25.7 0.00 0.00 0.00 61 1010.5
20260505000632 22 191 6.4 17.7 0.00 0.00 0.00 61 1010.6
20260505000131 22 180 14.5 22.5 0.00 0.00 0.00 59 1010.6
20260504235626 22 177 8.0 25.7 0.00 0.00 0.00 60 1010.6
20260504235123 22 177 14.5 17.7 0.00 0.00 0.00 60 1010.6
20260504234620 22 160 11.3 27.4 0.00 0.00 0.00 60 1010.4
20260504234118 22 171 8.0 14.5 0.00 0.00 0.00 60 1010.6
20260504233613 22 192 20.9 27.4 0.00 0.00 0.00 59 1010.8
20260504233109 22 171 11.3 37.0 0.00 0.00 0.00 59 1010.5
20260504232607 22 194 9.7 19.3 0.00 0.00 0.00 58 1010.5
20260504232104 23 188 11.3 29.0 0.00 0.00 0.00 57 1010.7
20260504231600 23 191 25.7 25.7 0.00 0.00 0.00 56 1010.8
20260504231056 23 205 11.3 32.2 0.00 0.00 0.00 57 1010.5
20260504230553 23 199 16.1 33.8 0.00 0.00 0.00 56 1010.5
20260504230052 23 174 24.1 30.6 0.00 0.00 0.00 56 1010.7
20260504225549 23 164 25.7 33.8 0.00 0.00 0.00 56 1010.8
20260504225046 23 173 20.9 37.0 0.00 0.00 0.00 56 1010.6
20260504224543 23 210 22.5 37.0 0.00 0.00 0.00 55 1010.4
20260504224040 24 187 12.9 27.4 0.00 0.00 0.00 55 1010.5
20260504223537 23 182 25.7 38.6 0.00 0.00 0.00 55 1010.4
20260504223032 24 200 20.9 32.2 0.00 0.00 0.00 54 1010.5
20260504222529 24 204 14.5 40.2 0.00 0.00 0.00 53 1010.5
20260504222027 24 198 16.1 37.0 0.00 0.00 0.00 53 1010.5
20260504221524 24 208 25.7 35.4 0.00 0.00 0.00 53 1010.5
20260504221021 24 197 22.5 40.2 0.00 0.00 0.00 53 1010.5
20260504220517 24 199 25.7 43.5 0.00 0.00 0.00 52 1010.5
20260504220014 24 195 35.4 35.4 0.00 0.00 0.00 54 1010.4
20260504215510 24 172 16.1 40.2 0.00 0.00 0.00 53 1010.5
20260504215008 25 185 20.9 33.8 0.00 0.00 0.00 53 1010.7
20260504214504 25 176 17.7 30.6 0.00 0.00 0.00 52 1010.9
20260504214000 25 171 19.3 30.6 0.00 0.00 0.00 53 1011.0
20260504213456 25 161 22.5 33.8 0.00 0.00 0.00 54 1010.8
20260504212954 25 165 17.7 27.4 0.00 0.00 0.00 54 1010.8
20260504212450 25 174 32.2 35.4 0.00 0.00 0.00 53 1011.0
20260504211948 24 164 24.1 35.4 0.00 0.00 0.00 54 1011.2
20260504211444 24 188 19.3 41.8 0.00 0.00 0.00 53 1011.1
20260504210942 25 201 25.7 41.8 0.00 0.00 0.00 52 1011.2
20260504210438 25 189 22.5 38.6 0.00 0.00 0.00 52 1011.4
20260504205935 24 180 20.9 37.0 0.00 0.00 0.00 54 1011.2
20260504205433 25 184 27.4 38.6 0.00 0.00 0.00 53 1011.5
20260504204931 25 190 14.5 29.0 0.00 0.00 0.00 52 1011.7
20260504204429 24 203 25.7 40.2 0.00 0.00 0.00 51 1011.4
20260504203928 25 208 25.7 40.2 0.00 0.00 0.00 51 1011.7
20260504203425 25 209 19.3 35.4 0.00 0.00 0.00 52 1011.9
20260504202921 25 197 22.5 30.6 0.00 0.00 0.00 52 1011.7
20260504202418 25 192 30.6 37.0 0.00 0.00 0.00 51 1012.0
20260504201914 25 214 22.5 35.4 0.00 0.00 0.00 51 1012.2
20260504201412 25 193 20.9 30.6 0.00 0.00 0.00 51 1012.3
20260504200909 25 246 45.1 51.5 0.00 0.00 0.00 51 1012.1
20260504200406 24 206 14.5 32.2 0.00 0.00 0.00 52 1012.3
20260504195903 25 173 16.1 37.0 0.00 0.00 0.00 51 1012.3
20260504195358 24 186 38.6 45.1 0.00 0.00 0.00 52 1012.3
20260504194855 25 178 35.4 43.5 0.00 0.00 0.00 51 1012.6
20260504194351 25 193 12.9 40.2 0.00 0.00 0.00 51 1012.6
20260504193847 24 186 24.1 48.3 0.00 0.00 0.00 51 1012.6
20260504193344 24 205 17.7 32.2 0.00 0.00 0.00 51 1012.7
20260504192843 25 194 17.7 37.0 0.00 0.00 0.00 51 1012.7
20260504192340 25 210 29.0 43.5 0.00 0.00 0.00 51 1012.8
20260504191838 24 198 19.3 35.4 0.00 0.00 0.00 52 1012.9
20260504191336 24 215 27.4 43.5 0.00 0.00 0.00 52 1013.2
20260504190831 24 188 24.1 33.8 0.00 0.00 0.00 53 1013.1
20260504190327 24 176 20.9 37.0 0.00 0.00 0.00 53 1012.9
20260504185824 23 191 19.3 40.2 0.00 0.00 0.00 53 1013.1
20260504185321 23 187 12.9 35.4 0.00 0.00 0.00 55 1013.0
20260504184817 23 197 20.9 43.5 0.00 0.00 0.00 56 1013.0
20260504184313 23 192 24.1 38.6 0.00 0.00 0.00 54 1013.2
20260504183809 23 194 25.7 49.9 0.00 0.00 0.00 55 1013.4
20260504183306 24 180 29.0 32.2 0.00 0.00 0.00 56 1013.3
20260504182804 24 197 22.5 32.2 0.00 0.00 0.00 53 1013.4
20260504182301 24 195 16.1 57.9 0.00 0.00 0.00 52 1013.5
20260504181759 24 186 24.1 40.2 0.00 0.00 0.00 52 1013.5
20260504181256 23 235 22.5 32.2 0.00 0.00 0.00 54 1013.5
20260504180755 24 192 24.1 38.6 0.00 0.00 0.00 53 1013.7
20260504180253 24 193 20.9 33.8 0.00 0.00 0.00 54 1013.8
20260504175750 24 201 37.0 40.2 0.00 0.00 0.00 54 1013.8
20260504175247 23 195 29.0 35.4 0.00 0.00 0.00 55 1014.0
20260504174745 23 195 20.9 32.2 0.00 0.00 0.00 55 1014.0
20260504174243 23 194 22.5 25.7 0.00 0.00 0.00 57 1014.0
20260504173739 23 172 17.7 30.6 0.00 0.00 0.00 58 1013.9
20260504173236 23 180 24.1 29.0 0.00 0.00 0.00 57 1014.1
20260504172733 22 180 24.1 33.8 0.00 0.00 0.00 57 1014.1
20260504172229 23 185 27.4 35.4 0.00 0.00 0.00 55 1014.1
20260504171725 23 179 16.1 29.0 0.00 0.00 0.00 57 1014.1
20260504171223 22 173 24.1 40.2 0.00 0.00 0.00 58 1014.0
20260504170719 22 193 25.7 37.0 0.00 0.00 0.00 58 1014.2